Home > Weather > Yaoundé > Past weeks

Flag for Cameroon Past Weather in Yaoundé, Cameroon — Yesterday and Last 2 Weeks

Now
72 °F

Partly sunny.


Feels Like: 69 °F
Forecast: 67 / 80 °F
Wind: 6 mph from West

Location: Yaounde Airport

Current Time: Jul 30, 2016 at 10:25:20 AM

Latest Report: Jul 30, 2016 at 9:00 AM


Visibility: N/A

Pressure: 30.09 "Hg (27.69 "Hg at 717m altitude)

Humidity: 88%

Dew Point: 68 °F

Location of YaoundéLocation

Past Weather in Yaoundé — Graph

°F

Yaoundé Temperature Yesterday

Maximum temperature yesterday: 77 °F (at 3:00 PM)
Minimum temperature yesterday: 68 °F (at 10:00 PM)
Average temperature yesterday: 72 °F

High & Low Weather Summary for the Past Weeks

 TemperatureHumidityPressure
High82 °F (Jul 18, 12:00 PM)100% (Jul 21, 12:00 AM)30.12 "Hg (Jul 21, 12:00 AM)
Low68 °F (Jul 15, 11:00 PM)62% (Jul 19, 12:00 PM)29.95 "Hg (Jul 15, 4:00 PM)
Average73 °F86%30.05 "Hg
* Reported Jul 15 9:00 AM — Jul 30 9:00 AM, Yaoundé, Weather by CustomWeather, © 2016

Note: Actual official high and low records may vary slightly from our data, if they occured in-between our weather recording intervals... More about our weather records

Advertising

Yaoundé Weather History for the Previous 24 Hours

Scroll right to see more
 ConditionsComfort  
Time TempWeatherWind HumidityBarometerVisibility
9:00 AM
Sat, Jul 30
72 °FPartly sunny.6 mph88%30.09 "HgN/A
8:00 AM70 °FBroken clouds.5 mph94%30.07 "Hg5 mi
7:00 AM68 °FPartly sunny.2 mph94%30.04 "Hg4 mi
6:00 AM68 °FPassing clouds.3 mph94%30.04 "HgN/A
5:00 AM68 °FPartly cloudy.5 mph94%30.04 "HgN/A
4:00 AM68 °FPartly cloudy.3 mph94%30.04 "HgN/A
3:00 AM68 °FPartly cloudy.6 mph94%30.04 "HgN/A
2:00 AM70 °FPartly cloudy.5 mph88%30.04 "HgN/A
1:00 AM70 °FPartly cloudy.7 mph88%30.04 "HgN/A
12:00 AM70 °FPartly cloudy.6 mph88%30.07 "HgN/A
11:00 PM
Fri, Jul 29
68 °FPassing clouds.5 mph94%30.07 "HgN/A
10:00 PM68 °FPassing clouds.2 mph94%30.07 "HgN/A
9:00 PM70 °FPassing clouds.7 mph88%30.07 "Hg5 mi
8:00 PM72 °FPassing clouds.2 mph94%30.04 "HgN/A
7:00 PM73 °FPassing clouds.2 mph83%30.04 "HgN/A
6:00 PM73 °FThunderstorms. Partly sunny.3 mph89%30.01 "HgN/A
5:00 PM75 °FThunderstorms. Broken clouds.5 mph83%30.01 "HgN/A
4:00 PM75 °FThunderstorms. Broken clouds.6 mph78%30.01 "HgN/A
3:00 PM77 °FWarm.5 mph79%30.01 "HgN/A
2:00 PM75 °FPartly sunny.5 mph83%30.04 "Hg6 mi
1:00 PM75 °FBroken clouds.5 mph78%30.07 "Hg6 mi
12:00 PM75 °FPartly sunny.5 mph78%30.07 "Hg6 mi
11:00 AM75 °FPartly sunny.3 mph78%30.09 "Hg6 mi
10:00 AM73 °FPartly sunny.5 mph83%30.09 "Hg6 mi
Weather by CustomWeather, © 2016

See weather overviewHow to use our weather pages